TimeEDT,TemperatureF,Dew PointF,Humidity,Sea Level PressureIn,VisibilityMPH,Wind Direction,Wind SpeedMPH,Gust SpeedMPH,PrecipitationIn,Events,Conditions,WindDirDegrees,DateUTC
12:54 AM,54.0,51.1,90,29.92,10.0,ESE,3.5,-,N/A,,Partly Cloudy,110,2012-10-02 04:54:00
1:54 AM,52.0,50.0,93,29.92,9.0,Calm,Calm,-,N/A,,Clear,0,2012-10-02 05:54:00
2:54 AM,52.0,50.0,93,29.92,9.0,Calm,Calm,-,N/A,,Clear,0,2012-10-02 06:54:00
3:54 AM,51.8,50.0,94,29.92,10.0,Calm,Calm,-,N/A,,Clear,0,2012-10-02 07:54:00
4:54 AM,55.0,51.1,86,29.94,10.0,South,5.8,-,N/A,,Clear,170,2012-10-02 08:54:00
5:54 AM,55.9,51.1,84,29.96,10.0,South,3.5,-,N/A,,Clear,190,2012-10-02 09:54:00
6:54 AM,55.0,50.0,83,29.97,10.0,Calm,Calm,-,N/A,,Clear,0,2012-10-02 10:54:00
7:54 AM,55.0,51.1,86,30.00,10.0,Calm,Calm,-,N/A,,Partly Cloudy,0,2012-10-02 11:54:00
8:54 AM,57.9,52.0,81,30.01,10.0,South,6.9,-,N/A,,Mostly Cloudy,180,2012-10-02 12:54:00
9:54 AM,61.0,52.0,72,30.00,10.0,South,9.2,-,N/A,,Mostly Cloudy,190,2012-10-02 13:54:00
10:54 AM,62.1,53.1,72,30.01,10.0,SSW,6.9,-,N/A,,Mostly Cloudy,210,2012-10-02 14:54:00
11:54 AM,62.1,53.1,72,30.00,10.0,SSW,6.9,-,0.00,,Mostly Cloudy,200,2012-10-02 15:54:00
12:54 PM,62.1,53.1,72,30.00,10.0,South,6.9,-,N/A,,Overcast,190,2012-10-02 16:54:00
1:54 PM,63.0,54.0,72,29.99,10.0,South,5.8,-,N/A,,Overcast,190,2012-10-02 17:54:00
2:54 PM,64.0,54.0,70,29.99,10.0,South,9.2,-,N/A,,Overcast,180,2012-10-02 18:54:00
3:54 PM,63.0,54.0,72,29.99,10.0,Calm,Calm,-,0.00,Rain,Light Rain,0,2012-10-02 19:54:00
4:54 PM,62.1,55.0,78,29.99,10.0,Calm,Calm,-,0.02,,Overcast,0,2012-10-02 20:54:00
5:54 PM,61.0,55.9,83,30.00,10.0,East,3.5,-,N/A,,Mostly Cloudy,80,2012-10-02 21:54:00
6:54 PM,61.0,57.0,87,30.02,8.0,Calm,Calm,-,0.00,Rain,Light Rain,0,2012-10-02 22:54:00
7:54 PM,59.0,57.2,94,30.02,7.0,Calm,Calm,-,N/A,,Overcast,0,2012-10-02 23:54:00
8:54 PM,59.0,55.4,88,30.03,10.0,SSE,3.5,-,N/A,,Overcast,150,2012-10-03 00:54:00
9:54 PM,59.0,55.9,90,30.04,10.0,Calm,Calm,-,N/A,,Overcast,0,2012-10-03 01:54:00
10:54 PM,59.0,55.9,90,30.04,10.0,SE,3.5,-,N/A,,Overcast,140,2012-10-03 02:54:00
11:54 PM,59.0,55.9,90,30.05,10.0,Calm,Calm,-,N/A,,Overcast,0,2012-10-03 03:54:00